User: anonymous   Login
Location: Bagnara
(41.0500°N, 14.7833°E)
Time: 02:50:28
(UTC+00:00)
Language:

ASTEX 1 - Orbit

View from above orbital plane
View from above orbital plane
View from above satellite
View from above satellite

Ground track
Ground track

The orbit data is extracted from the following two-line orbital elements,

1 05560U 71089A   21268.14733130  .00000135  00000-0  36312-4 0  9990
2 05560  92.7218 346.6821 0017033 158.6238 201.5682 14.48153837626736
Epoch (UTC): 25 September 2021 03:32:09
Eccentricity: 0.0017033
inclination: 92.7218°
perigee height: 719 km
apogee height: 744 km
right ascension of ascending node: 346.6821°
argument of perigee: 158.6238°
revolutions per day: 14.48153837
mean anomaly at epoch: 201.5682°
orbit number at epoch: 62673

The dashed part of the orbit path shows where the satellite is in the earth's shadow,  

DLR